Location: Sabalos
(43.2860°N, 0.1414°E)
Time: 09:55:38
(UTC+00:00)

Cosmos 371 Rocket - Pass Details

Date: 05 July 2020
Orbit: 684 x 699 km, 74.0° (Epoch: 05 August)

Event Time Altitude Azimuth Distance (km) Brightness Sun altitude
Rises 23:42:44 0° 340° (NNW) 3,082 7.9 -23.9°
Reaches altitude 10° 23:45:04 10° 341° (NNW) 2,158 6.8 -23.9°
Maximum altitude 23:49:57 82° 70° (ENE) 703 3.2 -24.0°
Enters shadow 23:50:24 72° 134° (SE) 728 3.1 -24.0°
